Milas, Turkey

7:06 AM +03 on May 30, 2017 (GMT +0300)
Bodrum

Weather History for LTFE - December, 2012

Change the Weather History Date:

Sunday, December 9, 2012

  Actual Average Record
Temperature  
Mean Temperature 53 °F -  
Max Temperature 64 °F - - ()
Min Temperature 42 °F - - ()
Degree Days  
Heating Degree Days 12    
Growing Degree Days 3 (Base 50)    
Moisture  
Dew Point 51 °F    
Average Humidity 77    
Maximum Humidity 94    
Minimum Humidity 59    
Precipitation  
Precipitation 0.00 in - - ()
Sea Level Pressure  
Sea Level Pressure 29.82 in    
Wind  
Wind Speed 12 mph ()    
Max Wind Speed 22 mph    
Max Gust Speed 31 mph    
Visibility 6.1 miles    
Events Rain , Thunderstorm    
T = Trace of Precipitation, MM = Missing Value Source: Averaged Metar Reports

Daily Weather History Graph

Daily Weather History Graph

Search for Another Location

Airport or City:

Trip Planner

Search our weather history database for the weather conditions in past years. The results will help you decide how hot, cold, wet, or windy it might be!

Date:

Astronomy

Dec. 09, 2012 Rise Set
Actual Time 7:11 AM EET 4:51 PM EET
Civil Twilight 6:42 AM EET 5:20 PM EET
Nautical Twilight 6:10 AM EET 5:53 PM EET
Astronomical Twilight 5:38 AM EET 6:24 PM EET
Moon 2:26 AM EET (12/9) 1:42 PM EET (12/9)
Length of Visible Light 10h 38m
Length of Day
9h 40m
Waning Crescent, 21% of the Moon is Illuminated
Dec 9
Waning Crescent
Dec 13
New
Dec 20
First Quarter
Dec 28
Full
Jan 5
Last Quarter

Hourly Weather History & Observations

Time (EET) Temp. Dew Point Humidity Pressure Visibility Wind Dir Wind Speed Gust Speed Precip Events Conditions
12:20 AM 42.8 °F 39.2 °F 87% 29.98 in 6.2 mi Variable 2.3 mph - N/A   Mostly Cloudy
12:50 AM 53.6 °F 42.8 °F 67% 29.95 in 6.2 mi ESE 9.2 mph - N/A   Mostly Cloudy
1:20 AM 55.4 °F 42.8 °F 63% 29.95 in 6.2 mi ESE 9.2 mph - N/A   Mostly Cloudy
1:50 AM 57.2 °F 42.8 °F 59% 29.92 in 6.2 mi SE 11.5 mph - N/A   Mostly Cloudy
2:20 AM 57.2 °F 42.8 °F 59% 29.92 in 6.2 mi SE 15.0 mph - N/A   Mostly Cloudy
2:50 AM 57.2 °F 44.6 °F 63% 29.92 in 6.2 mi SE 16.1 mph - N/A   Mostly Cloudy
3:20 AM 55.4 °F 44.6 °F 67% 29.92 in 6.2 mi ESE 15.0 mph - N/A   Mostly Cloudy
3:50 AM 55.4 °F 44.6 °F 67% 29.89 in 6.2 mi ESE 15.0 mph - N/A   Mostly Cloudy
4:20 AM 55.4 °F 44.6 °F 67% 29.89 in 6.2 mi SE 15.0 mph - N/A   Mostly Cloudy
4:50 AM 55.4 °F 44.6 °F 67% 29.86 in 6.2 mi SE 21.9 mph - N/A   Mostly Cloudy
5:20 AM 55.4 °F 46.4 °F 72% 29.86 in 6.2 mi ESE 18.4 mph 29.9 mph N/A   Mostly Cloudy
5:50 AM 53.6 °F 50.0 °F 88% 29.89 in 6.2 mi SE 13.8 mph - N/A Rain Light Rain Showers
6:20 AM 53.6 °F 48.2 °F 82% 29.86 in 6.2 mi SE 18.4 mph - N/A Rain Light Rain Showers
6:50 AM 53.6 °F 50.0 °F 88% 29.86 in 6.2 mi ESE 18.4 mph 31.1 mph N/A Rain Light Rain Showers
7:20 AM 53.6 °F 50.0 °F 88% 29.89 in 6.2 mi SE 11.5 mph - N/A Rain Light Rain Showers
7:50 AM 55.4 °F 50.0 °F 82% 29.89 in 6.2 mi SE 12.7 mph - N/A Rain Light Rain Showers
8:20 AM 55.4 °F 50.0 °F 82% 29.86 in 6.2 mi SE 11.5 mph - N/A   Mostly Cloudy
8:50 AM 57.2 °F 51.8 °F 82% 29.86 in 6.2 mi SE 11.5 mph - N/A   Mostly Cloudy
9:20 AM 57.2 °F 51.8 °F 82% 29.86 in 6.2 mi ESE 13.8 mph - N/A   Mostly Cloudy
9:50 AM 59.0 °F 53.6 °F 82% 29.86 in 6.2 mi SE 15.0 mph - N/A   Mostly Cloudy
10:20 AM 60.8 °F 53.6 °F 77% 29.86 in 6.2 mi SE 16.1 mph - N/A   Mostly Cloudy
10:50 AM 60.8 °F 51.8 °F 72% 29.83 in 6.2 mi SSE 21.9 mph - N/A   Mostly Cloudy
11:20 AM 60.8 °F 53.6 °F 77% 29.83 in 6.2 mi SE 20.7 mph - N/A Rain Light Rain Showers
11:50 AM 62.6 °F 53.6 °F 72% 29.80 in 6.2 mi SSE 19.6 mph - N/A   Mostly Cloudy
12:20 PM 60.8 °F 53.6 °F 77% 29.80 in 6.2 mi SE 16.1 mph - N/A   Mostly Cloudy
12:50 PM 62.6 °F 55.4 °F 77% 29.80 in 6.2 mi SE 11.5 mph - N/A   Mostly Cloudy
1:20 PM 64.4 °F 55.4 °F 73% 29.77 in 6.2 mi SE 16.1 mph - N/A   Mostly Cloudy
1:50 PM 64.4 °F 53.6 °F 68% 29.77 in 6.2 mi SSE 15.0 mph - N/A   Mostly Cloudy
2:20 PM 60.8 °F 55.4 °F 82% 29.77 in 4.3 mi SSE 16.1 mph - N/A Rain Light Rain Showers
2:50 PM 60.8 °F 53.6 °F 77% 29.77 in 6.2 mi SSE 17.3 mph - N/A Rain Light Rain Showers
3:20 PM 60.8 °F 53.6 °F 77% 29.77 in 6.2 mi SSE 13.8 mph - N/A Rain Light Rain Showers
3:50 PM 60.8 °F 55.4 °F 82% 29.77 in 6.2 mi SSE 10.4 mph - N/A Rain Light Rain Showers
4:20 PM 60.8 °F 51.8 °F 72% 29.74 in 5.6 mi SSE 17.3 mph - N/A Rain Light Rain Showers
4:50 PM 62.6 °F 51.8 °F 68% 29.74 in 6.2 mi South 19.6 mph - N/A Rain Light Rain Showers
5:20 PM 62.6 °F 50.0 °F 63% 29.74 in 6.2 mi South 18.4 mph 29.9 mph N/A   Mostly Cloudy
5:50 PM 60.8 °F 51.8 °F 72% 29.74 in 6.2 mi South 16.1 mph - N/A   Mostly Cloudy
6:20 PM 60.8 °F 53.6 °F 77% 29.74 in 6.2 mi South 16.1 mph 27.6 mph N/A Rain , Thunderstorm Light Thunderstorms and Rain
6:50 PM 60.8 °F 51.8 °F 72% 29.74 in 6.2 mi South 13.8 mph 25.3 mph N/A Rain , Thunderstorm Light Thunderstorms and Rain
7:20 PM 62.6 °F 53.6 °F 72% 29.74 in 6.2 mi South 16.1 mph 27.6 mph N/A Rain , Thunderstorm Light Thunderstorms and Rain
7:50 PM 62.6 °F 51.8 °F 68% 29.74 in 6.2 mi South 16.1 mph - N/A Rain , Thunderstorm Light Thunderstorms and Rain
8:20 PM 59.0 °F 50.0 °F 72% 29.74 in 6.2 mi South 10.4 mph - N/A Rain , Thunderstorm Light Thunderstorms and Rain
8:50 PM 57.2 °F 53.6 °F 88% 29.74 in - SW 13.8 mph - N/A Rain , Thunderstorm Thunderstorms and Rain
9:20 PM 57.2 °F 53.6 °F 88% 29.74 in 6.2 mi West 5.8 mph - N/A Rain , Thunderstorm Thunderstorms and Rain
9:50 PM 55.4 °F 53.6 °F 94% 29.74 in 6.2 mi WSW 5.8 mph - N/A Rain , Thunderstorm Light Thunderstorms and Rain
10:20 PM 55.4 °F 53.6 °F 94% 29.74 in 6.2 mi SSW 4.6 mph - N/A Rain , Thunderstorm Light Thunderstorms and Rain
10:50 PM 55.4 °F 53.6 °F 94% 29.74 in 6.2 mi Variable 2.3 mph - N/A Rain , Thunderstorm Light Thunderstorms and Rain
11:20 PM 55.4 °F 53.6 °F 94% 29.74 in 6.2 mi West 6.9 mph - N/A Rain , Thunderstorm Light Thunderstorms and Rain
11:50 PM 55.4 °F 53.6 °F 94% 29.71 in 6.2 mi WNW 3.5 mph - N/A Rain Light Rain Showers